owner,sensor,date,latitude,longitude,vertical_datum,direction_of_sea_water_velocity,sea_water_speed,upward_sea_water_velocity,qcFlag 
TABS,ioos:station:wmo:42050:1,2006-04-01T00:00:00Z,28.8425,-94.2433,2.0,228.741539,26.87077223,-99999.0,'11111222,11111222,99999999' 
TABS,ioos:station:wmo:42050:1,2006-04-01T00:30:00Z,28.8425,-94.2433,2.0,232.876792,30.80230024,-99999.0,'11111222,11111222,99999999' 
TABS,ioos:station:wmo:42050:1,2006-04-01T01:00:00Z,28.8425,-94.2433,2.0,233.9230413,32.50311524,-99999.0,'11111222,11111222,99999999' 
TABS,ioos:station:wmo:42050:1,2006-04-01T01:30:00Z,28.8425,-94.2433,2.0,233.5626038,33.62295942,-99999.0,'11111222,11111222,99999999' 
TABS,ioos:station:wmo:42050:1,2006-04-01T02:00:00Z,28.8425,-94.2433,2.0,232.0472626,39.59306631,-99999.0,'11111222,11111222,99999999' 
TABS,ioos:station:wmo:42050:1,2006-04-01T02:30:00Z,28.8425,-94.2433,2.0,227.539029,39.58027792,-99999.0,'11111222,11111222,99999999' 
TABS,ioos:station:wmo:42050:1,2006-04-01T03:00:00Z,28.8425,-94.2433,2.0,228.0023601,37.93178746,-99999.0,'11111222,11111222,99999999' 
TABS,ioos:station:wmo:42050:1,2006-04-01T03:30:00Z,28.8425,-94.2433,2.0,224.634894,35.53990715,-99999.0,'11111222,11111222,99999999' 
TABS,ioos:station:wmo:42050:1,2006-04-01T04:00:00Z,28.8425,-94.2433,2.0,227.0230749,32.84437547,-99999.0,'11111222,11111222,99999999' 
TABS,ioos:station:wmo:42050:1,2006-04-01T04:30:00Z,28.8425,-94.2433,2.0,238.0242636,26.32399096,-99999.0,'11111222,11111222,99999999' 
TABS,ioos:station:wmo:42050:1,2006-04-01T05:00:00Z,28.8425,-94.2433,2.0,247.3950632,23.05077005,-99999.0,'11111222,11111222,99999999' 
TABS,ioos:station:wmo:42050:1,2006-04-01T05:30:00Z,28.8425,-94.2433,2.0,259.4380304,16.96745414,-99999.0,'11111222,11111222,99999999' 
TABS,ioos:station:wmo:42050:1,2006-04-01T06:00:00Z,28.8425,-94.2433,2.0,281.7440778,14.24824551,-99999.0,'11111222,11111222,99999999' 
TABS,ioos:station:wmo:42050:1,2006-04-01T06:30:00Z,28.8425,-94.2433,2.0,296.1152053,10.81395857,-99999.0,'11111222,11111222,99999999' 
TABS,ioos:station:wmo:42050:1,2006-04-01T07:00:00Z,28.8425,-94.2433,2.0,306.231933,9.694601591,-99999.0,'11133222,11111222,99999999' 
TABS,ioos:station:wmo:42050:1,2006-04-01T07:30:00Z,28.8425,-94.2433,2.0,318.7838971,10.60851073,-99999.0,'11111222,11111222,99999999' 
TABS,ioos:station:wmo:42050:1,2006-04-01T08:00:00Z,28.8425,-94.2433,2.0,329.063685,10.85414667,-99999.0,'11111222,11111222,99999999' 
TABS,ioos:station:wmo:42050:1,2006-04-01T08:30:00Z,28.8425,-94.2433,2.0,324.3875053,9.754347749,-99999.0,'11133222,11111222,99999999' 
TABS,ioos:station:wmo:42050:1,2006-04-01T09:00:00Z,28.8425,-94.2433,2.0,321.553045,14.31342377,-99999.0,'11111222,11111222,99999999' 
TABS,ioos:station:wmo:42050:1,2006-04-01T09:30:00Z,28.8425,-94.2433,2.0,316.4051045,10.38344837,-99999.0,'11111222,11111222,99999999' 
TABS,ioos:station:wmo:42050:1,2006-04-01T10:00:00Z,28.8425,-94.2433,2.0,315.4132501,7.849089119,-99999.0,'11133222,11111222,99999999' 
TABS,ioos:station:wmo:42050:1,2006-04-01T10:30:00Z,28.8425,-94.2433,2.0,341.6359964,10.25211198,-99999.0,'11111222,11111222,99999999' 
TABS,ioos:station:wmo:42050:1,2006-04-01T11:00:00Z,28.8425,-94.2433,2.0,4.577435784,6.891980847,-99999.0,'11133222,11111222,99999999' 
TABS,ioos:station:wmo:42050:1,2006-04-01T11:30:00Z,28.8425,-94.2433,2.0,19.30531162,8.953440679,-99999.0,'11133222,11111222,99999999' 
TABS,ioos:station:wmo:42050:1,2006-04-01T12:00:00Z,28.8425,-94.2433,2.0,46.99963981,11.34890303,-99999.0,'11111222,11111222,99999999' 
TABS,ioos:station:wmo:42050:1,2006-04-01T12:30:00Z,28.8425,-94.2433,2.0,69.70750826,11.70657935,-99999.0,'11111222,11111222,99999999' 
TABS,ioos:station:wmo:42050:1,2006-04-01T13:00:00Z,28.8425,-94.2433,2.0,90.71872488,11.1608781,-99999.0,'11111222,11111222,99999999' 
TABS,ioos:station:wmo:42050:1,2006-04-01T13:30:00Z,28.8425,-94.2433,2.0,104.4086005,13.06081927,-99999.0,'11111222,11111222,99999999' 
TABS,ioos:station:wmo:42050:1,2006-04-01T14:00:00Z,28.8425,-94.2433,2.0,111.8253316,13.31435691,-99999.0,'11111222,11111222,99999999' 
TABS,ioos:station:wmo:42050:1,2006-04-01T14:30:00Z,28.8425,-94.2433,2.0,118.6595651,13.9489677,-99999.0,'11111222,11111222,99999999' 
TABS,ioos:station:wmo:42050:1,2006-04-01T15:00:00Z,28.8425,-94.2433,2.0,126.5426783,14.7122398,-99999.0,'11111222,11111222,99999999' 
TABS,ioos:station:wmo:42050:1,2006-04-01T15:30:00Z,28.8425,-94.2433,2.0,116.3618139,12.61150269,-99999.0,'11111222,11111222,99999999' 
TABS,ioos:station:wmo:42050:1,2006-04-01T16:00:00Z,28.8425,-94.2433,2.0,112.4469603,13.51390765,-99999.0,'11111222,11111222,99999999' 
TABS,ioos:station:wmo:42050:1,2006-04-01T16:30:00Z,28.8425,-94.2433,2.0,111.2816662,13.30747534,-99999.0,'11111222,11111222,99999999' 
TABS,ioos:station:wmo:42050:1,2006-04-01T17:00:00Z,28.8425,-94.2433,2.0,107.110685,10.53636085,-99999.0,'11111222,11111222,99999999' 
TABS,ioos:station:wmo:42050:1,2006-04-01T17:30:00Z,28.8425,-94.2433,2.0,114.0511847,9.17670965,-99999.0,'11133222,11111222,99999999' 
TABS,ioos:station:wmo:42050:1,2006-04-01T18:00:00Z,28.8425,-94.2433,2.0,114.9015402,11.708514,-99999.0,'11111222,11111222,99999999' 
TABS,ioos:station:wmo:42050:1,2006-04-01T18:30:00Z,28.8425,-94.2433,2.0,124.0661036,8.872620808,-99999.0,'11133222,11111222,99999999' 
TABS,ioos:station:wmo:42050:1,2006-04-01T19:00:00Z,28.8425,-94.2433,2.0,133.4974027,8.62966975,-99999.0,'11133222,11111222,99999999' 
TABS,ioos:station:wmo:42050:1,2006-04-01T19:30:00Z,28.8425,-94.2433,2.0,124.0898884,8.74228803,-99999.0,'11133222,11111222,99999999' 
TABS,ioos:station:wmo:42050:1,2006-04-01T20:00:00Z,28.8425,-94.2433,2.0,147.8759672,10.24914143,-99999.0,'11111222,11111222,99999999' 
TABS,ioos:station:wmo:42050:1,2006-04-01T20:30:00Z,28.8425,-94.2433,2.0,150.4903071,9.663627683,-99999.0,'11133222,11111222,99999999' 
TABS,ioos:station:wmo:42050:1,2006-04-01T21:00:00Z,28.8425,-94.2433,2.0,172.4772622,8.402315157,-99999.0,'11133222,11111222,99999999' 
TABS,ioos:station:wmo:42050:1,2006-04-01T21:30:00Z,28.8425,-94.2433,2.0,193.4609064,3.866212617,-99999.0,'11133222,11111222,99999999' 
TABS,ioos:station:wmo:42050:1,2006-04-01T22:00:00Z,28.8425,-94.2433,2.0,217.6304185,8.434743624,-99999.0,'11133222,11111222,99999999' 
TABS,ioos:station:wmo:42050:1,2006-04-01T22:30:00Z,28.8425,-94.2433,2.0,251.6905977,7.194199052,-99999.0,'11133222,11111222,99999999' 
TABS,ioos:station:wmo:42050:1,2006-04-01T23:00:00Z,28.8425,-94.2433,2.0,274.4733701,7.693432264,-99999.0,'11133222,11111222,99999999' 
TABS,ioos:station:wmo:42050:1,2006-04-01T23:30:00Z,28.8425,-94.2433,2.0,284.9719876,10.10295501,-99999.0,'11111222,11111222,99999999' 
TABS,ioos:station:wmo:42050:1,2006-04-02T00:00:00Z,28.8425,-94.2433,2.0,282.2178383,13.37287553,-99999.0,'11111222,11111222,99999999' 
TABS,ioos:station:wmo:42050:1,2006-04-02T00:30:00Z,28.8425,-94.2433,2.0,284.3694733,15.03018629,-99999.0,'11111222,11111222,99999999' 
TABS,ioos:station:wmo:42050:1,2006-04-02T01:00:00Z,28.8425,-94.2433,2.0,284.7124335,16.65607997,-99999.0,'11111222,11111222,99999999' 
TABS,ioos:station:wmo:42050:1,2006-04-02T01:30:00Z,28.8425,-94.2433,2.0,284.7439493,18.66453857,-99999.0,'11111222,11111222,99999999' 
TABS,ioos:station:wmo:42050:1,2006-04-02T02:00:00Z,28.8425,-94.2433,2.0,293.1352529,23.61941574,-99999.0,'11111222,11111222,99999999' 
TABS,ioos:station:wmo:42050:1,2006-04-02T02:30:00Z,28.8425,-94.2433,2.0,286.6173869,24.02326581,-99999.0,'11111222,11111222,99999999' 
TABS,ioos:station:wmo:42050:1,2006-04-02T03:00:00Z,28.8425,-94.2433,2.0,293.9801116,20.22569653,-99999.0,'11111222,11111222,99999999' 
TABS,ioos:station:wmo:42050:1,2006-04-02T03:30:00Z,28.8425,-94.2433,2.0,303.0457506,23.41815108,-99999.0,'11111222,11111222,99999999' 
TABS,ioos:station:wmo:42050:1,2006-04-02T04:00:00Z,28.8425,-94.2433,2.0,308.3744565,22.55177155,-99999.0,'11111222,11111222,99999999' 
TABS,ioos:station:wmo:42050:1,2006-04-02T04:30:00Z,28.8425,-94.2433,2.0,318.6390711,24.2885858,-99999.0,'11111222,11111222,99999999' 
TABS,ioos:station:wmo:42050:1,2006-04-02T05:00:00Z,28.8425,-94.2433,2.0,323.3802001,25.23023979,-99999.0,'11111222,11111222,99999999' 
TABS,ioos:station:wmo:42050:1,2006-04-02T05:30:00Z,28.8425,-94.2433,2.0,320.655688,24.82715449,-99999.0,'11111222,11111222,99999999' 
TABS,ioos:station:wmo:42050:1,2006-04-02T06:00:00Z,28.8425,-94.2433,2.0,329.3142705,25.82627538,-99999.0,'11111222,11111222,99999999' 
TABS,ioos:station:wmo:42050:1,2006-04-02T06:30:00Z,28.8425,-94.2433,2.0,334.3307612,21.74618127,-99999.0,'11111222,11111222,99999999' 
TABS,ioos:station:wmo:42050:1,2006-04-02T07:00:00Z,28.8425,-94.2433,2.0,346.2129587,24.00155203,-99999.0,'11111222,11111222,99999999' 
TABS,ioos:station:wmo:42050:1,2006-04-02T07:30:00Z,28.8425,-94.2433,2.0,354.9293267,21.83546198,-99999.0,'11111222,11111222,99999999' 
TABS,ioos:station:wmo:42050:1,2006-04-02T08:00:00Z,28.8425,-94.2433,2.0,4.023931905,23.08690755,-99999.0,'11111222,11111222,99999999' 
TABS,ioos:station:wmo:42050:1,2006-04-02T08:30:00Z,28.8425,-94.2433,2.0,9.21451419,23.16896631,-99999.0,'11111222,11111222,99999999' 
TABS,ioos:station:wmo:42050:1,2006-04-02T09:00:00Z,28.8425,-94.2433,2.0,17.11300984,20.83230664,-99999.0,'11111222,11111222,99999999' 
TABS,ioos:station:wmo:42050:1,2006-04-02T09:30:00Z,28.8425,-94.2433,2.0,19.44541184,18.29345785,-99999.0,'11111222,11111222,99999999' 
TABS,ioos:station:wmo:42050:1,2006-04-02T10:00:00Z,28.8425,-94.2433,2.0,28.815374,16.97142599,-99999.0,'11111222,11111222,99999999' 
TABS,ioos:station:wmo:42050:1,2006-04-02T10:30:00Z,28.8425,-94.2433,2.0,41.1310469,16.6620557,-99999.0,'11111222,11111222,99999999' 
TABS,ioos:station:wmo:42050:1,2006-04-02T11:00:00Z,28.8425,-94.2433,2.0,50.35510618,15.53221491,-99999.0,'11111222,11111222,99999999' 
TABS,ioos:station:wmo:42050:1,2006-04-02T11:30:00Z,28.8425,-94.2433,2.0,65.6558898,16.15654666,-99999.0,'11111222,11111222,99999999' 
TABS,ioos:station:wmo:42050:1,2006-04-02T12:00:00Z,28.8425,-94.2433,2.0,68.44372885,17.36452994,-99999.0,'11111222,11111222,99999999' 
TABS,ioos:station:wmo:42050:1,2006-04-02T12:30:00Z,28.8425,-94.2433,2.0,77.8849725,15.7712555,-99999.0,'11111222,11111222,99999999' 
TABS,ioos:station:wmo:42050:1,2006-04-02T13:00:00Z,28.8425,-94.2433,2.0,89.31138357,16.64120188,-99999.0,'11111222,11111222,99999999' 
TABS,ioos:station:wmo:42050:1,2006-04-02T13:30:00Z,28.8425,-94.2433,2.0,96.65985511,17.4175314,-99999.0,'11111222,11111222,99999999' 
TABS,ioos:station:wmo:42050:1,2006-04-02T14:00:00Z,28.8425,-94.2433,2.0,106.8229685,15.96317011,-99999.0,'11111222,11111222,99999999' 
TABS,ioos:station:wmo:42050:1,2006-04-02T14:30:00Z,28.8425,-94.2433,2.0,117.298508,16.41855657,-99999.0,'11111222,11111222,99999999' 
TABS,ioos:station:wmo:42050:1,2006-04-02T15:00:00Z,28.8425,-94.2433,2.0,119.5945226,16.07743761,-99999.0,'11111222,11111222,99999999' 
TABS,ioos:station:wmo:42050:1,2006-04-02T15:30:00Z,28.8425,-94.2433,2.0,136.5496286,13.8572905,-99999.0,'11111222,11111222,99999999' 
TABS,ioos:station:wmo:42050:1,2006-04-02T16:00:00Z,28.8425,-94.2433,2.0,135.835217,14.06584871,-99999.0,'11111222,11111222,99999999' 
TABS,ioos:station:wmo:42050:1,2006-04-02T16:30:00Z,28.8425,-94.2433,2.0,138.1511926,12.60556226,-99999.0,'11111222,11111222,99999999' 
TABS,ioos:station:wmo:42050:1,2006-04-02T17:00:00Z,28.8425,-94.2433,2.0,155.1167718,11.1225222,-99999.0,'11111222,11111222,99999999' 
TABS,ioos:station:wmo:42050:1,2006-04-02T17:30:00Z,28.8425,-94.2433,2.0,125.9420278,6.42284205,-99999.0,'11133222,11111222,99999999' 
TABS,ioos:station:wmo:42050:1,2006-04-02T18:00:00Z,28.8425,-94.2433,2.0,145.5804484,8.279571245,-99999.0,'11133222,11111222,99999999' 
TABS,ioos:station:wmo:42050:1,2006-04-02T18:30:00Z,28.8425,-94.2433,2.0,146.8304193,6.104727676,-99999.0,'11133222,11111222,99999999' 
TABS,ioos:station:wmo:42050:1,2006-04-02T19:00:00Z,28.8425,-94.2433,2.0,163.8391776,6.215609383,-99999.0,'11133222,11111222,99999999' 
TABS,ioos:station:wmo:42050:1,2006-04-02T19:30:00Z,28.8425,-94.2433,2.0,280.840701,0.478539445,-99999.0,'11133222,11111222,99999999' 
TABS,ioos:station:wmo:42050:1,2006-04-02T20:00:00Z,28.8425,-94.2433,2.0,234.4924446,2.186618394,-99999.0,'11133222,11111222,99999999' 
TABS,ioos:station:wmo:42050:1,2006-04-02T20:30:00Z,28.8425,-94.2433,2.0,191.6241581,1.7866449,-99999.0,'11133222,11111222,99999999' 
TABS,ioos:station:wmo:42050:1,2006-04-02T21:00:00Z,28.8425,-94.2433,2.0,216.199507,1.710116955,-99999.0,'11133222,11111222,99999999' 
TABS,ioos:station:wmo:42050:1,2006-04-02T21:30:00Z,28.8425,-94.2433,2.0,220.7481164,2.956771888,-99999.0,'11133222,11111222,99999999' 
TABS,ioos:station:wmo:42050:1,2006-04-02T22:00:00Z,28.8425,-94.2433,2.0,226.3603701,5.955518449,-99999.0,'11133222,11111222,99999999' 
TABS,ioos:station:wmo:42050:1,2006-04-02T22:30:00Z,28.8425,-94.2433,2.0,228.3747491,5.525015837,-99999.0,'11133222,11111222,99999999' 
TABS,ioos:station:wmo:42050:1,2006-04-02T23:00:00Z,28.8425,-94.2433,2.0,235.1218566,5.753477209,-99999.0,'11133222,11111222,99999999' 
TABS,ioos:station:wmo:42050:1,2006-04-02T23:30:00Z,28.8425,-94.2433,2.0,223.2148452,7.491895621,-99999.0,'11133222,11111222,99999999' 
TABS,ioos:station:wmo:42050:1,2006-04-03T00:00:00Z,28.8425,-94.2433,2.0,215.7644635,10.2659096,-99999.0,'11111222,11111222,99999999' 
TABS,ioos:station:wmo:42050:1,2006-04-03T00:30:00Z,28.8425,-94.2433,2.0,230.201281,10.2173431,-99999.0,'11111222,11111222,99999999' 
TABS,ioos:station:wmo:42050:1,2006-04-03T01:00:00Z,28.8425,-94.2433,2.0,232.045437,8.877589763,-99999.0,'11133222,11111222,99999999' 
TABS,ioos:station:wmo:42050:1,2006-04-03T01:30:00Z,28.8425,-94.2433,2.0,229.9174081,11.13549729,-99999.0,'11111222,11111222,99999999' 
TABS,ioos:station:wmo:42050:1,2006-04-03T02:00:00Z,28.8425,-94.2433,2.0,234.7317708,12.59092133,-99999.0,'11111222,11111222,99999999' 
TABS,ioos:station:wmo:42050:1,2006-04-03T02:30:00Z,28.8425,-94.2433,2.0,237.068668,13.18915464,-99999.0,'11111222,11111222,99999999' 
TABS,ioos:station:wmo:42050:1,2006-04-03T03:00:00Z,28.8425,-94.2433,2.0,238.590601,14.5640997,-99999.0,'11111222,11111222,99999999' 
TABS,ioos:station:wmo:42050:1,2006-04-03T03:30:00Z,28.8425,-94.2433,2.0,244.0450228,14.69180043,-99999.0,'11111222,11111222,99999999' 
TABS,ioos:station:wmo:42050:1,2006-04-03T04:00:00Z,28.8425,-94.2433,2.0,248.1284141,13.71732481,-99999.0,'11111222,11111222,99999999' 
TABS,ioos:station:wmo:42050:1,2006-04-03T04:30:00Z,28.8425,-94.2433,2.0,261.2016162,11.76847059,-99999.0,'11111222,11111222,99999999' 
TABS,ioos:station:wmo:42050:1,2006-04-03T05:00:00Z,28.8425,-94.2433,2.0,276.0672521,12.96260005,-99999.0,'11111222,11111222,99999999' 
TABS,ioos:station:wmo:42050:1,2006-04-03T05:30:00Z,28.8425,-94.2433,2.0,291.7724021,10.86503566,-99999.0,'11111222,11111222,99999999' 
TABS,ioos:station:wmo:42050:1,2006-04-03T06:00:00Z,28.8425,-94.2433,2.0,301.1822544,12.61209737,-99999.0,'11111222,11111222,99999999' 
TABS,ioos:station:wmo:42050:1,2006-04-03T06:30:00Z,28.8425,-94.2433,2.0,309.6133663,12.95484465,-99999.0,'11111222,11111222,99999999' 
TABS,ioos:station:wmo:42050:1,2006-04-03T07:00:00Z,28.8425,-94.2433,2.0,320.609577,12.73232108,-99999.0,'11111222,11111222,99999999' 
TABS,ioos:station:wmo:42050:1,2006-04-03T07:30:00Z,28.8425,-94.2433,2.0,337.8259694,14.83737173,-99999.0,'11111222,11111222,99999999' 
TABS,ioos:station:wmo:42050:1,2006-04-03T08:00:00Z,28.8425,-94.2433,2.0,349.2359607,13.38553324,-99999.0,'11111222,11111222,99999999' 
TABS,ioos:station:wmo:42050:1,2006-04-03T08:30:00Z,28.8425,-94.2433,2.0,2.150372773,13.8597583,-99999.0,'11111222,11111222,99999999' 
TABS,ioos:station:wmo:42050:1,2006-04-03T09:00:00Z,28.8425,-94.2433,2.0,9.765720977,16.15407069,-99999.0,'11111222,11111222,99999999' 
TABS,ioos:station:wmo:42050:1,2006-04-03T09:30:00Z,28.8425,-94.2433,2.0,16.66172734,17.4736287,-99999.0,'11111222,11111222,99999999' 
TABS,ioos:station:wmo:42050:1,2006-04-03T10:00:00Z,28.8425,-94.2433,2.0,18.77996972,18.38897768,-99999.0,'11111222,11111222,99999999' 
TABS,ioos:station:wmo:42050:1,2006-04-03T10:30:00Z,28.8425,-94.2433,2.0,24.97143806,18.9736686,-99999.0,'11111222,11111222,99999999' 
TABS,ioos:station:wmo:42050:1,2006-04-03T11:00:00Z,28.8425,-94.2433,2.0,31.12212715,19.25078959,-99999.0,'11111222,11111222,99999999' 
TABS,ioos:station:wmo:42050:1,2006-04-03T11:30:00Z,28.8425,-94.2433,2.0,33.60087783,19.5698467,-99999.0,'11111222,11111222,99999999' 
TABS,ioos:station:wmo:42050:1,2006-04-03T12:00:00Z,28.8425,-94.2433,2.0,39.99619698,18.48350616,-99999.0,'11111222,11111222,99999999' 
TABS,ioos:station:wmo:42050:1,2006-04-03T12:30:00Z,28.8425,-94.2433,2.0,49.51518899,19.22224753,-99999.0,'11111222,11111222,99999999' 
TABS,ioos:station:wmo:42050:1,2006-04-03T13:00:00Z,28.8425,-94.2433,2.0,54.72977482,16.1923099,-99999.0,'11111222,11111222,99999999' 
TABS,ioos:station:wmo:42050:1,2006-04-03T13:30:00Z,28.8425,-94.2433,2.0,72.00193063,15.76124995,-99999.0,'11111222,11111222,99999999' 
TABS,ioos:station:wmo:42050:1,2006-04-03T14:00:00Z,28.8425,-94.2433,2.0,73.49811574,16.6873485,-99999.0,'11111222,11111222,99999999' 
TABS,ioos:station:wmo:42050:1,2006-04-03T14:30:00Z,28.8425,-94.2433,2.0,83.96612039,14.46011065,-99999.0,'11111222,11111222,99999999' 
TABS,ioos:station:wmo:42050:1,2006-04-03T15:00:00Z,28.8425,-94.2433,2.0,90.0,16.14,-99999.0,'11111222,11111222,99999999' 
TABS,ioos:station:wmo:42050:1,2006-04-03T15:30:00Z,28.8425,-94.2433,2.0,102.2665162,13.74377314,-99999.0,'11111222,11111222,99999999' 
TABS,ioos:station:wmo:42050:1,2006-04-03T16:00:00Z,28.8425,-94.2433,2.0,109.4244132,14.28297588,-99999.0,'11111222,11111222,99999999' 
TABS,ioos:station:wmo:42050:1,2006-04-03T16:30:00Z,28.8425,-94.2433,2.0,124.1078431,16.35299667,-99999.0,'11111222,11111222,99999999' 
TABS,ioos:station:wmo:42050:1,2006-04-03T17:00:00Z,28.8425,-94.2433,2.0,129.7722273,15.44381106,-99999.0,'11111222,11111222,99999999' 
TABS,ioos:station:wmo:42050:1,2006-04-03T17:30:00Z,28.8425,-94.2433,2.0,146.909524,15.89857855,-99999.0,'11111222,11111222,99999999' 
TABS,ioos:station:wmo:42050:1,2006-04-03T18:00:00Z,28.8425,-94.2433,2.0,158.6944217,14.58691537,-99999.0,'11111222,11111222,99999999' 
TABS,ioos:station:wmo:42050:1,2006-04-03T18:30:00Z,28.8425,-94.2433,2.0,176.1155167,16.82865711,-99999.0,'11111222,11111222,99999999' 
TABS,ioos:station:wmo:42050:1,2006-04-03T19:00:00Z,28.8425,-94.2433,2.0,188.1446538,16.44589006,-99999.0,'11111222,11111222,99999999' 
TABS,ioos:station:wmo:42050:1,2006-04-03T19:30:00Z,28.8425,-94.2433,2.0,190.569756,17.00860958,-99999.0,'11111222,11111222,99999999' 
TABS,ioos:station:wmo:42050:1,2006-04-03T20:00:00Z,28.8425,-94.2433,2.0,186.2965935,17.50561053,-99999.0,'11111222,11111222,99999999' 
TABS,ioos:station:wmo:42050:1,2006-04-03T20:30:00Z,28.8425,-94.2433,2.0,195.2792456,18.55591819,-99999.0,'11111222,11111222,99999999' 
TABS,ioos:station:wmo:42050:1,2006-04-03T21:00:00Z,28.8425,-94.2433,2.0,204.4901398,19.39495037,-99999.0,'11111222,11111222,99999999' 
TABS,ioos:station:wmo:42050:1,2006-04-03T21:30:00Z,28.8425,-94.2433,2.0,209.3120884,18.56728844,-99999.0,'11111222,11111222,99999999' 
TABS,ioos:station:wmo:42050:1,2006-04-03T22:00:00Z,28.8425,-94.2433,2.0,216.0243532,15.4556818,-99999.0,'11111222,11111222,99999999' 
TABS,ioos:station:wmo:42050:1,2006-04-03T22:30:00Z,28.8425,-94.2433,2.0,223.2911277,14.46676536,-99999.0,'11111222,11111222,99999999' 
TABS,ioos:station:wmo:42050:1,2006-04-03T23:00:00Z,28.8425,-94.2433,2.0,230.1485601,14.49762049,-99999.0,'11111222,11111222,99999999' 
TABS,ioos:station:wmo:42050:1,2006-04-03T23:30:00Z,28.8425,-94.2433,2.0,235.6270884,12.80616258,-99999.0,'11111222,11111222,99999999' 
TABS,ioos:station:wmo:42050:1,2006-04-04T00:00:00Z,28.8425,-94.2433,2.0,237.8577444,14.67995232,-99999.0,'11111222,11111222,99999999' 
TABS,ioos:station:wmo:42050:1,2006-04-04T00:30:00Z,28.8425,-94.2433,2.0,236.766661,12.86390687,-99999.0,'11111222,11111222,99999999' 
TABS,ioos:station:wmo:42050:1,2006-04-04T01:00:00Z,28.8425,-94.2433,2.0,245.0801389,13.86039321,-99999.0,'11111222,11111222,99999999' 
TABS,ioos:station:wmo:42050:1,2006-04-04T01:30:00Z,28.8425,-94.2433,2.0,237.3330532,13.04308246,-99999.0,'11111222,11111222,99999999' 
TABS,ioos:station:wmo:42050:1,2006-04-04T02:00:00Z,28.8425,-94.2433,2.0,241.1159363,12.04885472,-99999.0,'11111222,11111222,99999999' 
TABS,ioos:station:wmo:42050:1,2006-04-04T02:30:00Z,28.8425,-94.2433,2.0,248.8553393,11.17216631,-99999.0,'11111222,11111222,99999999' 
TABS,ioos:station:wmo:42050:1,2006-04-04T03:00:00Z,28.8425,-94.2433,2.0,244.2068519,10.61781522,-99999.0,'11111222,11111222,99999999' 
TABS,ioos:station:wmo:42050:1,2006-04-04T03:30:00Z,28.8425,-94.2433,2.0,235.5076819,8.91767907,-99999.0,'11133222,11111222,99999999' 
TABS,ioos:station:wmo:42050:1,2006-04-04T04:00:00Z,28.8425,-94.2433,2.0,239.323535,7.173876219,-99999.0,'11133222,11111222,99999999' 
TABS,ioos:station:wmo:42050:1,2006-04-04T04:30:00Z,28.8425,-94.2433,2.0,248.5114035,6.115038839,-99999.0,'11133222,11111222,99999999' 
TABS,ioos:station:wmo:42050:1,2006-04-04T05:00:00Z,28.8425,-94.2433,2.0,232.5654705,6.498315166,-99999.0,'11133222,11111222,99999999' 
TABS,ioos:station:wmo:42050:1,2006-04-04T05:30:00Z,28.8425,-94.2433,2.0,239.4789538,4.213846224,-99999.0,'11133222,11111222,99999999' 
TABS,ioos:station:wmo:42050:1,2006-04-04T06:00:00Z,28.8425,-94.2433,2.0,237.9942707,2.924534151,-99999.0,'11133222,11111222,99999999' 
TABS,ioos:station:wmo:42050:1,2006-04-04T06:30:00Z,28.8425,-94.2433,2.0,226.2405512,3.918290444,-99999.0,'11133222,11111222,99999999' 
TABS,ioos:station:wmo:42050:1,2006-04-04T07:00:00Z,28.8425,-94.2433,2.0,258.6463001,2.590694887,-99999.0,'11133222,11111222,99999999' 
TABS,ioos:station:wmo:42050:1,2006-04-04T07:30:00Z,28.8425,-94.2433,2.0,333.6581605,1.149347641,-99999.0,'11133222,11111222,99999999' 
TABS,ioos:station:wmo:42050:1,2006-04-04T08:00:00Z,28.8425,-94.2433,2.0,357.614272,2.642290673,-99999.0,'11133222,11111222,99999999' 
TABS,ioos:station:wmo:42050:1,2006-04-04T08:30:00Z,28.8425,-94.2433,2.0,54.19673962,3.008521231,-99999.0,'11133222,11111222,99999999' 
TABS,ioos:station:wmo:42050:1,2006-04-04T09:00:00Z,28.8425,-94.2433,2.0,33.26778588,4.138175927,-99999.0,'11133222,11111222,99999999' 
TABS,ioos:station:wmo:42050:1,2006-04-04T09:30:00Z,28.8425,-94.2433,2.0,35.67653525,5.761249864,-99999.0,'11133222,11111222,99999999' 
TABS,ioos:station:wmo:42050:1,2006-04-04T10:00:00Z,28.8425,-94.2433,2.0,48.93027158,6.499453823,-99999.0,'11133222,11111222,99999999' 
TABS,ioos:station:wmo:42050:1,2006-04-04T10:30:00Z,28.8425,-94.2433,2.0,38.82395777,5.455171858,-99999.0,'11133222,11111222,99999999' 
TABS,ioos:station:wmo:42050:1,2006-04-04T11:00:00Z,28.8425,-94.2433,2.0,41.64033648,7.118658582,-99999.0,'11133222,11111222,99999999' 
TABS,ioos:station:wmo:42050:1,2006-04-04T11:30:00Z,28.8425,-94.2433,2.0,62.90348561,11.56991357,-99999.0,'11111222,11111222,99999999' 
TABS,ioos:station:wmo:42050:1,2006-04-04T12:00:00Z,28.8425,-94.2433,2.0,72.57265835,10.25052682,-99999.0,'11111222,11111222,99999999' 
TABS,ioos:station:wmo:42050:1,2006-04-04T12:30:00Z,28.8425,-94.2433,2.0,81.53901292,16.65122818,-99999.0,'11111222,11111222,99999999' 
TABS,ioos:station:wmo:42050:1,2006-04-04T13:00:00Z,28.8425,-94.2433,2.0,77.14694228,14.56494422,-99999.0,'11111222,11111222,99999999' 
TABS,ioos:station:wmo:42050:1,2006-04-04T13:30:00Z,28.8425,-94.2433,2.0,92.2529994,20.09553433,-99999.0,'11111222,11111222,99999999' 
TABS,ioos:station:wmo:42050:1,2006-04-04T14:00:00Z,28.8425,-94.2433,2.0,86.96730448,19.65753036,-99999.0,'11111222,11111222,99999999' 
TABS,ioos:station:wmo:42050:1,2006-04-04T14:30:00Z,28.8425,-94.2433,2.0,87.73600237,17.21343661,-99999.0,'11111222,11111222,99999999' 
TABS,ioos:station:wmo:42050:1,2006-04-04T15:00:00Z,28.8425,-94.2433,2.0,98.66254667,17.19616527,-99999.0,'11111222,11111222,99999999' 
TABS,ioos:station:wmo:42050:1,2006-04-04T15:30:00Z,28.8425,-94.2433,2.0,100.1654251,15.80815296,-99999.0,'11111222,11111222,99999999' 
TABS,ioos:station:wmo:42050:1,2006-04-04T16:00:00Z,28.8425,-94.2433,2.0,112.2210993,14.70189444,-99999.0,'11111222,11111222,99999999' 